Location: D�derode
(51.8092°N, 10.1065°E)
Time: 16:14:46
(UTC+00:00)

BREEZE-M DEB (TANK) - Pass Details

Date: 23 April 2021
Orbit: 315 x 13085 km, 49.6° (Epoch: 11 May)

Event Time Altitude Azimuth Distance (km) Brightness Sun altitude
Rises 23:46:39 0° 275° (W) 9,180 9.0 -25.4°
Reaches altitude 10° 23:55:21 10° 275° (W) 6,119 8.0 -25.1°
Maximum altitude 00:08:26 70° 196° (SSW) 1,076 3.9 -24.7°
Enters shadow 00:10:09 40° 126° (SE) 1,165 4.2 -24.7°
